星链-4371 (STARLINK-4371 )

导读

STARLINK-4371是美国于2022年7月22日发射的星链卫星,隶属于SpaceX打造的星链卫星互联网项目。星链计划旨在通过大规模低轨卫星星座,为全球提供高速低延迟的宽带互联网服务,该卫星承担着扩展全球网络覆盖、填补偏远地区通信空白的任务,是星链星座构建过程中的组成单元之一。

Basic Information
目录编号:
53232
目录名称:
STARLINK-4371
国际标识:
2022-084AV
轨道中心:
EARTH
卫星名称:
星链-4371
卫星全名:
星链-4371 (STARLINK-4371 )
卫星状态:
在轨 (已飞行1426 天)
发射日期:
2022-07-22 UTC
国别 :
美国 (US)
星等 :
--
Orbit Information
数据来源 国际轨道数据 AOE轨道数据
星历时间 2026-06-17T09:39:23+0800
9小时前
查看轨道信息
2026-06-11T01:00:00+0800
6天前
查看轨道信息
半长轴 6927.63km 6927.637km
偏心率 0.0001876 0.0001494
轨道倾角 97.349° 97.378°
近地点辐角 142.449° 177.165°
升交点赤经 227.047° 220.974°
平近点角 217.686° 287.599°
近地点 548.193km 548.465km
远地点 550.793km 550.535km
周期 95.639分钟 95.640分钟
每日圈数 15.056561 15.056537
Detailed Information
固有亮度:
5
最大亮度:
2.5
卫星平台:
Starlink v1.5
覆盖范围:
全球
运营商:
太空探索技术公司
运营商所在国:
美国
制造商(研发单位):
太空探索技术公司
制造商所在国:
美国
使用方式:
暂无
Satellite Introduction
星链(Starlink)计划是由太空探索技术公司(SpaceX)提出的一个巨型低轨卫星互联网星座项目,计划在2019年至2024年间在太空搭建由约1.2万颗卫星组成的“星链”网络,其中1584颗将部署在地球上空550千米处的近地轨道,并从2020年开始工作。该卫星仍在工作。
2D Orbit Map
3D Orbit Map
Orbit Altitude Analysis Chart
Orbit Inclination Analysis Chart
Orbit Comprehensive Analysis Chart
View Comprehensive Chart